Location: St. Louis
(38.6270°N, 90.1994°W)
Time: 13:25:52
(UTC-06:00)

Transit 4A - Pass Details

Date: 01 December 2021
Orbit: 864 x 980 km, 66.8° (Epoch: 16 January)

Event Time Altitude Azimuth Distance (km) Brightness Sun altitude
Rises 05:25:07 0° 327° (NNW) 3,624 - -18.1°
Reaches altitude 10° 05:27:41 10° 324° (NW) 2,690 - -17.6°
Exits shadow 05:29:24 20° 320° (NW) 2,086 9.3 -17.3°
Maximum altitude 05:33:51 60° 247° (WSW) 1,100 8.0 -16.5°
Drops below altitude 10° 05:40:07 10° 168° (SSE) 2,719 10.7 -15.3°
Sets 05:42:42 0° 165° (SSE) 3,666 11.5 -14.8°
